Torna al catalogo

STARLINK-11303

AttivoComunicazioniVLEO
NORAD 62096·PAYLOAD·🇺🇸 United States

Lanciato Nov 25, 2024 da Cape Canaveral Space Force Station

Loading…

Prossimi Passaggi (prossime 24 ore)

TLE

AggiornatoSource: CelesTrak SupGP

Epoca: Sep 14, 2026, 14:47 UTC

1 62096C 24220J   26257.61645833  .00052574  00000+0  40867-3 0  2578
2 62096  43.0007 344.0641 0001548 284.1627 267.2911 15.70793494    17

Traccia STARLINK-11303 in tempo reale con AllMySat

Download on the App Store